Regional Weather Roundup
Issued by NWS

Home | Current Version | Previous Version | Text Only | Print | Product List | Glossary Off
Versions: 1 2 3 4 5 6 7 8 9 10 11 12 13 14 15 16 17 18 19 20 21 22 23 24 25 26 27 28 29 30 31 32 33 34 35 36 37 38 39 40 41 42 43 44 45 46 47 48 49 50

000
ASUS43 KMKX 060321
RWRWI

WISCONSIN REGIONAL WEATHER ROUNDUP
NATIONAL WEATHER SERVICE MILWAUKEE/SULLIVAN WI
1000 PM CDT TUE MAY 05 2015

NOTE: "FAIR" INDICATES FEW OR NO CLOUDS BELOW 12,000 FEET WITH NO
SIGNIFICANT WEATHER AND/OR OBSTRUCTIONS TO VISIBILITY.

WIZ001-002-006>008-014>016-023>028-060400-
NORTHWEST WISCONSIN

CITY           SKY/WX    TMP DP  RH WIND       PRES   REMARKS
SUPERIOR ARPT  CLEAR     42  34  73 E5        30.18R
ASHLAND        CLEAR     41  34  76 W3        30.19S
HAYWARD        PTCLDY    61  28  28 S7        30.19R
SIREN          MOCLDY    62  31  30 SE8       30.16R
CUMBERLAND     CLOUDY    59  30  33 SE9       30.18R
RICE LAKE      MOCLDY    59  31  34 SE7       30.20R
CHETEK         CLOUDY    59  35  40 SE8       30.19S
LADYSMITH      PTCLDY    56  33  41 SE3       30.22S
EAU CLAIRE     CLOUDY    58  46  64 SE12      30.19R
MENOMONIE      CLOUDY    58  48  68 SE15      30.19R
NEW RICHMOND   CLOUDY    60  47  63 SE10      30.16S
OSCEOLA        CLOUDY    61  46  57 SE7       30.17S
$$

WIZ003>005-009-010-017-018-060400-
NORTH CENTRAL WISCONSIN

CITY           SKY/WX    TMP DP  RH WIND       PRES   REMARKS
MANITOWISH WTR CLEAR     55  31  39 S3        30.23R
ARBOR VITAE    CLEAR     57  27  31 S5        30.24R
WOODRUFF       CLEAR     57  27  31 S5        30.24R
RHINELANDER    CLEAR     55  25  31 SE6       30.25R
EAGLE RIVER    CLEAR     53  26  35 S5        30.25R
LAND O LAKES   CLEAR     55  27  33 S5        30.25R
PHILLIPS       FAIR      56  31  39 SE3       30.22R
TOMAHAWK       PTCLDY    49  30  47 CALM      30.25R
MEDFORD        MOCLDY    55  25  31 E6        30.22S
MERRILL        MOCLDY    54  26  33 SE3       30.25S
$$

WIZ029-030-035-036-043>047-060400-
CENTRAL WISCONSIN

CITY           SKY/WX    TMP DP  RH WIND       PRES   REMARKS
WAUSAU         CLOUDY    57  21  24 SE5       30.22R
MOSINEE        CLEAR     55  23  28 E6        30.25R
MARSHFIELD     CLOUDY    58  40  51 SE8       30.22R
STEVENS POINT  CLOUDY    56  43  61 SE6       30.25R
WAUPACA        CLOUDY    58  46  63 SE6       30.25S
WAUTOMA        CLOUDY    56  46  69 E7        30.25R
WISC RAPIDS    CLOUDY    58  42  55 SE7       30.24R
CAMP DOUGLAS   DRIZZLE   54  54 100 E9        30.21R
$$

WIZ011>013-019>022-031-037>040-048>050-060400-
NORTHEAST WISCONSIN

CITY           SKY/WX    TMP DP  RH WIND       PRES   REMARKS
ANTIGO         MOCLDY    51  31  47 SE7       30.26R
SHAWANO        CLOUDY    58  26  29 CALM      30.26R
OCONTO         CLOUDY    51  37  59 CALM      30.26S
STURGEON BAY   CLOUDY    54  32  43 CALM      30.29S
GREEN BAY      CLOUDY    56  42  59 E3        30.26R
MANITOWOC      CLOUDY    47  39  74 CALM      30.28R
APPLETON       MOCLDY    57  36  44 VRB6      30.26R
CLINTONVILLE   CLOUDY    55  25  30 E3        30.25R
OSHKOSH        CLOUDY    56  46  69 SE5       30.25R
$$

WIZ032>034-041-042-053>061-060400-
SOUTHWEST WISCONSIN

CITY           SKY/WX    TMP DP  RH WIND       PRES   REMARKS
LA CROSSE      CLOUDY    56  53  90 SE3       30.18S
SPARTA         RAIN      53  49  87 E6        30.20S
VIROQUA        CLOUDY    52  52 100 E9        30.19S
BOSCOBEL       CLOUDY    56  53  90 CALM      30.20R FOG
PRAIRIE DU CHI CLOUDY    55  54  96 E6        30.17S
PLATTEVILLE    CLOUDY    53  52  95 E15       30.19R
$$

WIZ056-057-062-063-064-067-068-060400-
SOUTH CENTRAL WISCONSIN

CITY           SKY/WX    TMP DP  RH WIND       PRES   REMARKS
REEDSBURG      CLOUDY    53  51  95 E5        30.21R
BARABOO/DELLS  NOT AVBL
LONE ROCK      CLOUDY    54  51  90 E10       30.20R
MINERAL POINT  CLOUDY    54  52  94 E10G16    30.20R FOG
MADISON        LGT RAIN  52  48  86 E10       30.22R
MIDDLETON      CLOUDY    54  50  86 E7        30.22S
WATERTOWN      CLOUDY    51  49  93 E6        30.23S
MONROE         CLOUDY    50  50 100 E8        30.21S FOG
JANESVILLE     CLOUDY    52  50  93 E8        30.22R FOG
$$

WIZ051-052-058>065-066-070>072-060400-
SOUTHEAST WISCONSIN

CITY           SKY/WX    TMP DP  RH WIND       PRES   REMARKS
MILWAUKEE      CLOUDY    45  40  82 NE6       30.26R
WAUKESHA       CLOUDY    46  45  93 E5        30.26R
MILWAUKEE/TIMM CLOUDY    46  41  81 NE5       30.26S
RACINE         CLOUDY    45  41  86 NE7       30.27S
BURLINGTON     CLOUDY    47  46  96 NE5       30.24S
KENOSHA        CLOUDY    47  45  93 E8        30.25R
FOND DU LAC    CLOUDY    54  43  66 E3        30.25R
SHEBOYGAN      CLOUDY    47  38  71 NE6       30.27R
WEST BEND      CLOUDY    50  43  76 E3        30.25S
JUNEAU         CLOUDY    51  46  82 E9        30.25R
$$

LSZ147-162-060400-
LAKE SUPERIOR

STATION/POSITION TIME  TEMP    WIND        PRES    WAVE
                       AIR SEA DIR/SP/G            HT/PER
                 (UTC) (F)     (DEG/KT/KT) (MB)    (FT/S)
W MID LAKE BUOY  0250   43 36   90/ 14/ 16 1022.6S   1/ 3
DEVILS ISLAND    0300   46      20/  1/  2 1022.4R
PORT WING        0200   41      40/  7/ 10 1022.0
SAXON HARBOR     0200   45        CALM     1021.3R
$$

LMZ867-665-643>646-060400-
LAKE MICHIGAN

STATION/POSITION TIME  TEMP    WIND        PRES    WAVE
                       AIR SEA DIR/SP/G            HT/PER
                 (UTC) (F)     (DEG/KT/KT) (MB)    (FT/S)
CHAMBERS ISLAND  0200   46      CALM  /  2 1024.7R
NORTHPORT PIER   0200   48     300/  2/  3 1024.7R
SISTER BAY       0202   47        CALM       N/A
KEWAUNEE LAKESHO 0200   46        CALM     1023.9R
SHEBOYGAN LAKESH 0300   45      20/  4/  5 1025.8R
PORT WASHINGTON  0200   45      50/  4/  6 1025.1
ATWATER BUOY     0300   44      30/  8/ 10 1025.5F
MILWAUKEE LAKESH 0300   44      40/  8/  9   N/A
KENOSHA   LAKESH 0300   44      30/  9/ 11 1024.4R
$$

TC  - TEMPERATURE IN CELSIUS
VSB - VISIBILITY IN STATUTE MILES
WCI - WIND CHILL INDEX
HX  - HEAT INDEX




USA.gov is the U.S. government's official web portal to all federal, state and local government web resources and services.